Wind_Speed
13 13 13 12 12 12 12 13 12 13 14 13 12 13 12 12 12 12 13 13 13 13 14 15 15 15 17 17 17 18 18 18 16 13 15 16 11 13 16 11 8 9 9 9 12 12 12 12 11 11 9 7 5 5 7 6 5 5 5 6 5 5 4 3 5 3 3 5 6 7 8 8 3 3 2 4 4 6 7 6 7 9 9 8 10 13 17 19
14 14 13 13 13 13 13 13 13 13 12 13 13 12 12 12 12 12 13 13 13 13 13 15 14 15 16 17 17 17 18 17 16 18 20 18 15 17 18 16 13 9 11 13 14 14 12 11 11 11 8 5 5 5 7 7 6 7 5 5 6 4 2 2 1 2 2 4 6 6 7 8 5 3 1 5 7 8 8 8 8 8 9 8 11 13 17 18
14 14 14 14 14 14 14 13 14 14 13 12 12 12 12 12 12 12 13 13 13 13 13 14 14 14 16 17 16 15 16 16 14 13 11 7 5 7 11 15 17 14 13 14 13 13 11 10 12 11 8 6 5 6 8 7 7 7 5 6 6 3 1 1 1 1 2 5 5 5 7 5 5 5 3 3 8 9 8 10 9 9 10 10 11 13 16 16
13 13 14 14 14 13 14 14 14 14 13 13 13 12 12 13 12 12 12 12 13 13 12 14 14 14 15 16 14 13 14 13 8 1 5 5 5 6 5 6 15 18 15 13 12 12 11 10 12 11 8 7 6 7 8 8 7 5 6 8 3 1 3 3 2 2 2 5 5 6 7 4 5 5 4 4 8 8 7 8 6 9 14 13 13 14 15 15
13 13 13 14 14 14 15 15 14 14 13 12 13 13 12 12 12 11 12 12 13 12 12 14 14 15 16 15 11 11 10 7 1 8 8 5 6 10 9 4 9 18 16 13 12 12 12 11 11 10 8 7 7 8 9 10 7 5 8 10 3 2 4 3 3 0 2 3 5 6 6 5 5 4 3 6 5 4 4 5 3 8 15 16 15 14 14 14
13 13 13 14 15 17 17 15 14 14 13 11 12 12 12 13 12 11 11 11 12 12 12 13 13 14 15 12 9 8 8 4 4 6 4 6 13 14 10 6 7 17 17 15 15 13 13 12 11 10 8 9 10 10 10 11 9 7 9 9 7 7 5 2 2 1 2 4 5 6 6 6 6 2 1 5 1 8 8 5 6 10 15 16 15 14 13 13
13 14 14 14 15 16 16 15 14 14 14 11 12 12 11 12 13 12 11 11 12 11 11 12 12 14 14 10 6 6 8 9 4 1 9 15 18 16 9 4 9 18 18 18 17 14 13 14 13 10 9 9 10 12 10 11 11 10 8 7 9 9 7 5 3 3 4 5 6 6 5 6 5 1 0 3 2 7 6 6 8 12 15 15 14 13 13 12
14 15 15 15 14 15 14 14 14 14 14 12 12 13 11 12 12 12 11 11 11 11 11 11 11 13 13 9 6 6 9 13 9 9 15 16 14 11 4 5 14 19 20 21 19 16 14 15 15 11 10 10 10 12 10 10 11 12 10 6 8 7 7 6 4 5 6 5 5 6 6 5 3 1 2 5 5 6 5 7 9 12 13 12 12 12 12 11
15 15 15 15 14 15 15 14 13 13 13 13 13 13 12 12 13 12 11 12 11 10 10 10 9 11 10 7 6 6 6 7 7 10 11 8 4 2 4 10 17 20 20 21 20 18 14 13 16 12 10 9 9 11 11 10 8 11 13 8 7 8 6 6 5 6 5 3 4 6 5 3 2 1 5 7 6 5 5 8 9 11 12 11 11 11 11 11
16 15 15 15 14 15 15 15 13 12 12 13 14 13 12 12 13 12 11 11 10 9 9 8 8 9 9 7 7 6 2 1 3 4 6 6 2 5 6 9 17 20 19 20 20 19 14 12 14 9 7 7 8 9 11 11 5 6 13 10 9 9 7 6 6 6 4 4 7 7 6 3 4 5 6 8 6 5 7 8 9 10 11 11 11 10 10 10
16 15 15 14 14 15 15 15 13 11 11 12 12 13 13 12 13 12 11 11 10 9 8 7 7 6 7 6 6 5 1 3 1 3 6 7 3 5 3 6 15 19 17 17 19 19 16 13 11 7 4 5 8 9 11 11 4 3 9 10 11 10 8 8 8 7 5 5 6 7 5 3 5 6 5 10 8 7 8 9 9 10 10 11 11 11 9 9
15 15 14 14 14 14 14 15 13 12 12 12 12 14 13 13 13 13 12 11 10 8 7 6 5 4 6 6 10 12 1 1 2 3 3 4 2 0 2 6 13 14 14 15 17 18 14 10 10 10 4 3 8 7 8 11 7 5 6 8 10 10 9 11 10 8 7 5 3 4 6 6 8 7 7 10 9 8 8 9 9 9 10 11 11 10 8 9
14 14 13 14 14 13 13 14 14 13 13 13 13 14 15 13 13 13 12 11 10 8 6 6 4 5 6 5 12 18 12 11 12 12 11 7 5 3 2 6 11 9 10 12 13 14 10 7 12 13 5 5 7 3 3 10 8 7 8 7 7 8 9 12 11 8 8 4 3 6 7 8 11 9 8 8 9 9 9 9 9 9 9 10 9 9 8 9
14 13 13 13 13 13 13 13 13 13 14 15 14 15 16 15 14 14 12 12 10 8 7 5 4 4 5 8 14 17 15 16 18 19 17 13 12 8 3 8 9 6 6 6 8 9 7 7 11 11 6 7 4 5 5 9 7 8 9 7 6 7 8 12 11 10 10 5 5 9 7 7 12 10 8 7 8 9 10 9 9 9 9 9 9 8 8 9
13 13 12 12 13 14 14 14 14 14 14 15 15 16 16 16 16 15 13 11 9 7 6 5 6 5 5 10 14 13 11 14 20 22 17 11 13 10 7 11 10 6 5 3 4 8 7 7 9 9 8 6 3 7 8 7 7 8 8 7 8 6 7 11 10 12 11 6 9 12 7 6 10 10 6 6 8 9 10 9 9 9 9 9 8 8 8 9
13 13 13 13 13 14 14 15 16 15 15 15 16 16 17 18 17 16 14 11 9 6 5 5 7 7 6 5 4 5 8 10 14 15 14 14 14 10 9 13 12 8 6 4 4 7 7 8 8 7 8 8 7 9 8 6 8 8 8 7 9 8 7 9 9 11 9 7 11 12 8 5 8 7 5 6 8 8 9 8 9 9 9 9 8 8 8 9
14 13 13 13 13 13 13 14 15 15 15 16 17 19 18 16 13 12 10 9 7 7 7 5 5 7 7 5 3 5 9 10 7 6 10 15 15 12 12 13 12 11 8 5 4 7 9 8 6 6 7 8 9 9 8 9 8 8 9 6 8 11 8 8 10 10 10 9 12 13 10 4 7 6 6 6 6 7 8 8 9 8 7 7 7 8 8 8
14 13 13 13 12 13 13 15 15 14 15 17 18 19 15 8 3 2 7 10 7 7 7 5 4 6 7 9 9 4 3 5 4 4 6 10 14 15 14 11 11 13 10 8 7 8 9 7 6 7 8 9 11 10 9 10 9 10 10 7 7 10 9 8 10 10 12 12 12 14 11 6 7 5 6 5 4 6 7 6 6 6 6 6 5 6 7 7
14 14 13 14 13 13 14 15 15 15 15 16 16 14 7 2 4 5 10 13 10 7 4 6 10 5 1 4 7 5 4 4 3 5 7 9 14 16 14 12 12 14 11 8 9 10 8 7 8 9 10 11 12 13 11 8 10 12 12 9 8 9 9 8 9 8 10 12 12 13 12 10 7 4 4 4 2 3 5 4 3 5 5 5 5 5 6 6
14 14 14 15 15 14 14 14 15 15 15 14 13 8 4 3 4 5 8 11 12 8 5 5 15 11 4 4 4 3 5 8 7 7 9 12 15 16 13 12 13 12 11 9 10 10 9 8 10 11 12 14 15 16 13 7 8 11 11 10 9 9 10 8 9 7 6 9 12 12 11 8 5 4 4 3 3 4 4 4 4 5 6 6 6 6 6 6
14 15 15 16 17 15 14 15 15 15 15 13 11 7 3 2 2 1 4 10 16 17 14 8 14 14 12 5 2 6 3 6 8 7 10 14 17 16 12 13 13 11 11 12 10 9 10 10 11 13 13 15 16 16 11 6 8 11 10 10 9 9 10 10 9 7 5 6 8 10 9 6 4 4 4 2 4 4 3 3 4 5 5 5 6 7 8 7
15 14 14 15 17 15 14 15 15 16 16 12 9 8 4 4 4 4 3 7 12 18 20 16 16 16 17 17 10 4 5 5 8 9 11 14 17 15 13 14 14 11 13 13 9 8 10 11 13 15 14 14 15 14 11 8 9 9 8 9 8 8 8 9 8 8 5 5 7 12 9 6 5 4 5 4 3 4 2 1 1 3 4 5 6 7 8 8
14 14 14 13 15 16 14 15 17 17 13 8 9 8 3 2 4 6 5 7 8 13 17 18 18 17 18 19 13 9 8 9 9 10 14 15 15 14 14 15 15 13 14 14 11 9 9 10 14 15 13 15 14 14 14 11 9 9 9 8 8 10 9 8 9 8 4 3 4 11 8 5 5 5 6 5 4 5 4 4 4 2 1 3 5 5 6 7
14 15 14 13 14 14 14 18 18 12 6 6 9 7 4 3 5 7 5 6 8 8 14 17 16 16 17 13 10 14 13 10 10 9 15 16 14 13 14 15 15 14 13 15 15 11 10 10 13 14 14 16 15 14 16 11 9 10 11 10 8 11 10 6 9 10 5 2 3 9 8 5 7 7 6 5 4 6 6 6 6 6 4 4 5 5 4 3
14 15 16 14 13 14 16 18 11 5 5 7 7 5 3 3 5 6 5 5 6 5 9 13 11 12 15 11 10 12 11 11 13 10 13 17 15 12 12 12 12 13 14 18 16 12 11 10 13 15 15 17 16 14 16 13 9 10 12 11 7 11 11 7 12 11 6 7 9 10 8 6 8 8 7 6 6 7 6 6 8 7 7 6 6 6 5 3
14 15 16 15 13 15 16 10 2 4 8 6 3 3 3 3 6 6 4 4 5 3 6 8 7 8 13 12 11 11 9 11 14 13 13 16 17 13 11 9 8 12 15 14 11 8 9 11 14 16 16 18 17 14 17 16 10 8 11 12 7 9 12 10 12 12 7 6 8 9 9 5 8 9 8 6 7 9 7 7 9 8 8 7 7 6 5 4
14 13 15 15 13 12 10 5 4 8 7 2 3 3 4 5 7 4 4 5 4 3 5 5 4 6 10 13 16 12 7 7 12 15 15 16 17 14 12 12 9 10 11 9 8 7 9 13 15 17 17 16 14 12 16 17 12 6 12 15 11 9 11 10 11 10 7 4 7 9 11 5 7 9 9 8 8 10 9 8 9 8 9 9 8 7 6 5
14 12 14 15 12 11 10 11 11 10 4 1 2 5 6 8 6 4 4 4 2 2 3 4 4 4 5 11 19 14 4 9 12 15 17 17 17 13 13 15 13 11 12 10 9 8 11 15 16 18 17 13 12 13 15 18 13 5 11 15 14 11 10 10 10 9 6 4 6 11 12 8 6 8 8 9 10 10 9 9 9 9 10 10 8 8 7 6
15 14 14 15 14 12 12 13 13 10 6 4 5 7 8 7 4 5 4 4 3 2 1 4 5 5 6 10 17 16 8 7 8 12 19 18 16 12 10 14 15 13 15 14 10 9 11 15 17 18 14 11 13 13 14 18 13 5 10 11 11 10 10 9 9 8 6 6 8 12 13 10 5 9 8 9 11 9 8 8 8 9 10 9 8 8 8 7
15 14 14 16 14 11 10 11 13 12 7 6 8 10 8 5 5 5 5 2 2 2 1 3 5 6 9 11 14 16 13 8 6 12 17 14 15 12 7 9 14 12 13 15 13 9 9 11 14 15 13 12 13 12 13 18 12 7 9 10 8 8 8 7 7 8 7 8 11 13 15 12 6 9 9 7 6 7 7 7 8 8 9 9 8 8 8 7
15 14 15 16 13 10 9 7 6 5 4 5 10 10 6 5 4 6 4 1 1 1 1 4 5 6 11 12 11 14 14 8 10 15 14 12 14 13 7 8 11 10 11 12 12 10 10 10 10 11 12 12 12 10 11 13 11 8 9 9 9 8 6 7 7 8 8 8 11 13 14 12 9 7 8 7 7 5 6 7 8 8 9 9 8 8 8 7
16 16 17 15 13 12 11 7 2 3 3 9 11 6 6 5 5 6 3 1 2 0 2 1 2 4 10 12 10 14 14 9 12 17 15 13 13 12 11 11 10 11 11 11 11 11 10 11 12 11 11 11 12 11 9 9 10 10 10 10 9 8 7 9 9 9 9 7 8 11 12 9 4 5 9 10 9 7 7 8 8 9 10 10 9 8 7 7
16 18 18 16 15 15 15 12 9 8 8 10 9 5 6 6 6 6 5 3 2 2 3 4 4 3 8 11 10 14 14 10 14 17 16 16 14 13 15 15 14 13 10 11 12 10 9 11 14 13 10 12 13 10 9 9 11 11 11 10 10 9 9 10 10 9 9 7 5 8 10 8 4 7 9 11 9 8 9 9 9 10 10 10 10 9 9 9
18 20 20 17 16 17 16 15 13 11 8 8 6 6 7 7 6 6 7 5 1 2 3 6 6 5 7 10 10 13 13 10 14 17 16 16 13 12 15 16 19 15 9 11 11 10 11 10 13 14 10 13 15 12 10 11 11 12 10 10 10 8 8 9 9 9 11 9 7 8 8 7 6 6 8 10 9 9 9 10 11 11 10 9 10 10 9 9
20 20 19 17 16 16 16 16 14 11 8 6 6 7 8 8 6 6 5 3 0 1 4 8 8 6 6 9 10 14 13 8 13 15 13 15 13 12 13 13 18 16 10 10 8 10 13 9 13 15 10 15 18 14 12 12 11 10 10 11 10 8 7 5 2 3 7 8 7 7 5 1 4 6 7 9 10 10 10 10 11 10 9 9 9 10 9 8
19 17 14 12 12 10 11 14 14 14 9 6 7 8 8 7 6 4 0 1 2 3 6 7 6 5 5 7 8 15 15 9 13 13 11 14 14 14 15 12 16 17 12 9 7 8 11 8 15 16 10 15 19 15 13 13 9 8 9 10 6 3 5 5 3 2 3 8 6 5 5 5 6 6 8 10 11 12 11 11 11 11 11 10 9 8 8 7
15 14 11 11 9 7 9 12 17 16 9 6 8 9 8 7 6 3 1 1 2 4 5 4 3 2 4 5 6 13 15 11 13 12 10 14 13 14 17 13 16 18 14 11 8 7 8 7 13 17 13 13 14 13 14 12 9 7 9 10 6 0 3 5 5 5 6 8 5 6 9 9 7 6 9 13 12 13 11 11 12 11 11 10 8 7 7 7
14 13 11 10 8 8 10 14 18 14 6 6 10 10 8 6 6 4 1 2 4 4 4 3 1 2 3 4 6 12 14 11 13 12 9 11 10 12 17 13 14 18 16 13 8 6 9 6 10 16 17 13 10 12 13 11 9 8 8 10 8 5 6 6 6 7 9 8 5 8 11 9 8 7 11 16 15 14 13 11 12 11 10 9 8 8 8 7
12 9 5 3 4 9 14 17 16 10 6 8 10 9 7 7 6 4 3 3 5 5 4 2 1 3 5 4 4 9 13 12 12 11 9 10 7 8 14 12 13 17 15 13 8 6 8 6 7 12 13 13 10 10 11 10 8 8 8 10 9 7 7 7 6 6 8 8 6 8 9 8 7 7 13 18 16 16 14 12 12 12 10 8 7 7 7 7
8 5 1 3 5 11 17 16 11 7 7 9 9 7 7 6 5 3 3 4 3 3 3 1 2 4 5 5 4 6 10 11 11 10 8 9 6 4 11 11 12 15 14 12 9 6 7 6 5 9 9 10 11 10 11 13 11 8 8 10 10 7 6 7 6 5 6 7 7 7 7 7 3 4 11 16 16 15 14 13 12 11 10 8 8 7 7 6
5 3 1 4 8 15 16 11 7 6 7 8 9 9 7 4 4 4 3 4 3 3 4 4 4 6 7 6 5 5 8 7 9 9 6 9 7 3 8 8 10 14 12 11 10 6 6 7 6 9 9 10 12 10 8 10 13 11 9 10 11 9 7 8 7 6 5 5 6 7 7 5 3 2 7 13 14 15 15 14 12 10 10 9 8 8 7 7
4 2 1 5 12 16 12 6 5 6 7 7 6 7 5 4 6 6 4 5 6 4 3 4 5 7 9 8 7 6 8 6 8 8 5 9 7 2 3 3 5 12 11 9 9 4 2 5 8 9 10 8 8 5 1 3 8 10 8 9 11 10 9 9 8 7 6 4 4 6 6 4 3 0 7 13 14 14 15 15 13 11 10 10 9 8 8 8
3 1 3 8 13 11 7 6 6 6 7 6 5 5 5 5 6 5 4 5 5 2 2 4 5 7 9 9 8 9 9 6 4 6 5 7 5 4 3 2 4 11 12 10 8 5 1 5 8 9 8 6 6 4 1 1 5 9 9 9 10 10 10 7 6 8 7 6 6 6 5 5 3 3 9 14 14 14 13 14 14 12 9 9 9 9 8 8
3 2 2 8 10 6 5 5 6 6 7 6 5 6 7 6 6 5 6 6 4 2 3 5 6 7 8 8 7 9 11 6 2 3 3 4 4 5 2 4 6 9 10 7 6 6 4 5 8 9 9 7 5 7 7 6 8 8 8 8 7 8 8 5 4 7 8 8 9 7 4 5 6 7 11 14 15 14 13 12 13 12 10 9 9 8 8 8
3 2 2 6 7 5 4 3 3 4 7 7 7 7 7 5 4 6 9 8 6 5 5 6 8 9 8 8 7 8 9 7 3 3 3 3 4 4 2 5 8 8 5 2 4 6 4 3 5 8 11 11 10 9 7 8 9 6 5 7 6 7 10 7 6 8 8 8 9 7 3 7 8 9 11 13 15 14 13 12 11 11 10 10 9 8 7 7
2 1 2 5 5 5 4 4 4 4 5 6 6 6 7 6 4 6 9 8 7 8 9 9 10 9 9 9 8 7 8 8 5 4 5 4 3 3 2 5 7 5 5 5 4 5 3 1 2 0 4 5 4 2 2 2 8 8 6 8 6 5 6 7 8 8 6 8 8 5 8 11 11 12 12 13 13 13 13 12 11 11 10 10 10 9 8 7
2 2 2 4 5 5 5 5 6 5 4 5 4 4 6 7 6 6 7 6 6 7 8 6 5 7 8 9 9 7 7 10 8 6 6 5 3 3 4 5 5 4 7 6 4 3 4 3 3 6 5 3 3 3 4 1 6 8 8 8 7 4 4 7 8 6 6 8 6 6 11 13 13 14 13 13 13 12 12 12 11 10 10 10 11 10 9 7
2 2 1 1 2 4 5 6 7 6 5 5 4 3 4 7 8 6 5 6 7 7 6 4 4 10 10 6 7 7 9 10 9 7 7 6 5 5 4 5 5 3 4 7 4 3 5 4 2 4 6 5 4 3 2 4 6 6 7 8 6 4 5 8 5 2 4 6 5 8 10 9 12 15 13 12 12 12 13 12 10 10 10 11 11 10 9 7
2 2 2 3 3 2 2 3 6 8 8 6 5 4 4 8 10 6 2 4 5 6 7 6 6 10 10 3 5 8 9 8 7 7 8 9 7 5 4 5 5 3 5 7 4 2 2 4 4 7 8 7 5 3 3 6 9 9 8 7 6 5 3 5 5 4 2 1 5 12 12 9 7 11 13 12 12 12 13 11 11 11 11 12 12 10 9 7
2 2 2 3 4 4 3 3 5 7 7 6 5 4 4 6 6 3 2 4 5 3 5 7 7 8 5 1 5 6 4 5 10 10 9 10 9 5 3 3 3 4 4 4 3 1 0 3 6 7 7 6 4 4 4 6 9 10 10 7 7 7 7 7 6 4 3 5 10 15 14 8 4 8 13 13 12 13 13 12 11 10 10 12 11 10 9 7
3 4 4 4 4 4 4 5 5 5 6 6 5 3 4 6 5 3 2 3 5 5 1 6 8 6 5 7 8 7 6 4 10 11 7 7 6 3 1 2 4 6 4 2 2 2 2 4 4 6 5 4 3 5 7 8 9 10 10 8 6 6 6 6 5 4 3 6 13 12 9 6 6 9 12 12 12 13 13 12 11 9 10 11 10 9 8 6
4 4 4 3 3 3 4 5 5 5 4 5 6 4 2 5 6 5 3 1 1 2 3 3 4 7 9 10 8 7 8 11 12 11 9 9 9 6 5 5 4 5 6 4 2 2 5 7 5 6 5 6 5 5 7 8 8 7 6 5 5 5 6 6 6 6 8 2 7 6 5 8 11 11 12 12 12 12 11 10 10 10 10 10 9 9 8 5
Wind_Direction
339 338 338 338 339 334 329 329 328 322 321 323 325 321 317 320 322 322 322 322 326 327 326 327 328 328 326 327 325 321 327 322 308 292 264 259 262 261 263 267 254 212 197 175 169 170 170 184 177 179 189 185 208 186 178 197 194 199 224 226 228 221 196 171 170 130 80 83 46 32 21 7 55 96 124 176 167 139 140 120 107 83 65 79 101 123 137 142
338 337 338 337 337 335 331 327 325 325 320 317 320 321 317 316 320 320 320 322 322 325 326 325 327 326 324 325 321 323 327 312 292 279 268 271 274 267 261 251 245 218 183 178 185 186 184 187 176 184 199 188 189 173 176 186 195 213 226 225 231 224 132 75 80 63 41 28 18 22 15 3 14 35 232 196 154 155 158 138 145 114 92 111 123 137 145 147
336 336 336 334 333 331 330 327 322 322 321 318 317 319 318 317 319 317 318 320 321 325 324 324 326 324 322 321 320 327 323 303 283 271 265 272 266 261 258 245 237 218 195 194 197 200 205 197 182 192 207 206 193 183 193 183 193 219 226 230 230 221 143 125 240 309 356 352 351 8 355 350 17 4 303 212 154 173 175 149 169 156 134 140 139 148 150 152
335 334 333 332 330 328 328 327 323 319 317 318 318 318 316 314 317 317 317 317 319 323 323 324 324 323 323 319 322 330 313 286 274 197 116 112 93 40 357 249 228 214 203 205 205 209 217 204 191 202 214 214 196 194 203 183 189 207 214 238 231 176 235 185 195 272 349 350 335 341 332 341 7 338 282 214 163 175 179 152 172 162 147 149 148 153 155 156
334 332 332 331 329 330 328 323 319 316 314 315 314 315 314 311 312 315 316 315 319 321 323 323 322 325 321 319 329 328 297 269 68 108 116 79 24 1 353 313 225 205 199 202 202 203 207 200 193 204 218 216 192 196 209 194 202 213 218 242 251 212 233 161 145 248 1 332 317 320 329 356 336 294 251 243 191 122 100 111 121 141 144 149 150 152 156 157
332 332 330 329 327 324 322 320 316 310 309 312 312 313 311 307 309 313 314 314 316 316 322 321 323 325 318 324 332 308 270 253 58 113 165 337 329 327 328 307 218 193 195 196 192 193 197 194 192 199 213 219 202 203 212 196 204 229 221 229 237 236 230 172 164 186 324 294 302 322 339 339 303 268 287 271 236 63 50 66 95 122 134 141 144 149 157 159
332 330 326 324 323 319 318 319 317 312 311 314 314 315 312 306 308 311 312 314 314 313 320 320 322 322 322 334 313 267 250 260 319 313 281 307 310 314 321 282 193 183 192 194 188 190 192 191 197 202 208 217 209 208 212 190 198 233 232 210 221 233 227 223 231 240 269 283 299 313 313 298 276 261 306 246 118 69 57 82 103 117 129 136 141 147 155 160
331 326 323 320 320 321 319 316 314 311 313 316 312 313 311 308 308 308 308 308 311 314 315 318 322 321 328 335 287 248 245 256 283 302 297 304 307 312 313 183 181 181 190 194 188 188 190 195 202 204 212 216 210 207 201 190 201 229 239 214 211 223 218 222 231 241 256 270 282 288 282 267 268 315 220 190 125 84 89 110 118 125 132 136 141 146 152 158
330 326 322 318 320 323 320 316 312 307 311 314 311 312 308 307 307 307 308 303 306 314 314 318 318 316 323 316 277 262 249 253 286 303 315 325 313 285 168 170 181 183 190 195 191 191 191 199 204 206 226 221 208 206 192 200 209 215 229 226 214 219 208 208 218 232 244 252 265 267 252 215 185 247 204 176 123 101 131 134 135 137 137 140 142 146 151 157
329 326 323 320 322 322 317 316 314 308 309 306 304 308 308 306 303 303 307 302 303 310 314 314 312 315 310 285 248 245 249 3 315 319 3 24 98 166 176 186 185 188 192 193 195 197 196 207 206 205 250 234 209 209 194 208 222 201 222 227 225 227 210 209 225 234 240 236 247 252 240 179 163 216 196 163 142 144 157 151 150 147 141 142 143 147 153 157
327 324 322 321 320 318 313 314 316 315 313 308 304 306 307 305 302 303 302 299 300 302 309 306 312 315 290 271 240 231 75 62 40 32 26 35 91 163 215 212 190 194 197 193 197 198 203 215 202 192 240 223 202 209 201 212 240 205 217 222 226 233 220 220 227 225 228 222 230 246 239 180 185 222 170 140 156 173 167 163 162 153 143 145 144 146 153 158
324 322 321 320 318 315 311 314 317 316 316 314 308 306 303 299 299 300 296 297 296 296 303 298 308 296 266 261 239 234 238 347 289 337 350 33 56 93 308 212 190 199 203 199 200 196 205 211 196 200 209 191 192 200 201 205 223 207 208 222 211 216 219 213 213 207 210 203 194 231 217 184 193 199 136 129 158 175 175 173 167 156 146 147 146 146 152 153
322 320 321 320 316 312 311 313 314 316 316 313 310 307 302 297 296 295 291 290 289 288 290 285 288 267 254 253 240 240 252 266 273 275 267 272 276 304 342 192 183 200 210 210 202 189 200 204 203 210 212 221 194 137 166 188 209 207 210 235 202 201 210 196 196 193 198 188 168 222 211 180 187 177 137 139 166 174 181 180 173 165 152 150 149 149 148 147
320 319 321 321 318 318 317 314 314 317 314 309 308 306 300 295 291 289 286 282 281 278 273 266 251 234 237 257 259 257 256 258 265 264 258 254 250 259 254 184 179 189 197 212 199 179 192 206 217 217 216 247 202 127 176 178 196 204 200 229 221 214 188 171 179 185 189 169 173 218 222 184 176 158 139 154 174 189 196 185 175 171 161 155 153 150 146 146
319 319 322 324 325 325 324 321 319 318 315 310 306 302 297 294 288 283 280 274 270 262 257 247 228 223 250 266 268 268 252 244 252 253 248 234 229 237 212 181 180 176 162 161 169 177 193 200 216 215 199 226 196 178 194 178 192 202 196 207 218 221 161 150 170 187 188 160 179 209 219 187 161 137 134 167 182 205 212 191 176 176 166 156 154 153 145 142
320 321 322 322 323 322 320 319 316 314 314 313 307 303 298 294 287 277 268 257 249 236 231 225 210 222 269 283 260 246 224 219 241 245 231 219 220 220 188 175 179 179 164 131 138 172 187 196 207 214 199 193 196 200 193 185 193 197 209 206 198 209 173 148 166 188 190 162 177 206 227 197 143 112 114 166 183 200 214 195 181 184 169 157 158 155 146 142
319 319 319 316 315 316 318 318 315 312 314 312 307 305 301 296 287 273 250 225 220 201 204 222 197 216 259 278 253 235 222 212 221 228 215 213 216 205 175 169 179 183 176 161 164 173 178 193 197 208 213 198 200 206 196 198 193 185 209 213 192 202 194 153 154 172 185 184 182 199 226 199 132 111 107 142 172 186 204 193 182 189 173 165 165 159 150 143
317 317 317 314 314 316 318 320 317 315 315 311 308 308 307 316 333 243 179 169 164 168 202 231 201 215 245 244 239 230 196 192 192 210 206 198 202 195 178 174 174 174 176 177 188 186 178 188 193 197 205 201 201 203 204 202 192 186 195 202 191 198 204 171 151 159 178 192 188 188 211 201 151 127 99 116 150 180 191 181 180 191 180 173 167 162 155 142
316 317 319 318 320 321 318 319 316 316 315 311 316 319 312 30 92 133 156 164 164 164 205 200 191 215 351 186 214 248 247 220 229 227 196 176 184 188 185 179 169 172 180 179 182 188 185 184 199 205 200 198 199 201 210 210 198 192 188 194 188 189 207 177 138 146 176 189 188 187 205 202 169 124 85 91 113 182 180 163 193 196 191 188 168 155 152 144
317 319 319 317 319 321 318 315 312 315 316 313 321 317 256 199 192 169 162 190 209 234 296 191 195 235 298 110 104 336 258 219 232 224 184 173 173 176 183 178 173 184 193 184 174 179 189 197 203 207 202 196 197 203 211 220 206 193 188 198 194 189 199 171 134 136 179 195 186 189 200 189 146 92 66 69 142 190 190 186 219 208 201 199 177 161 153 139
317 316 316 314 314 317 317 314 310 310 310 308 305 287 265 294 259 178 171 219 229 242 266 241 211 241 263 259 17 13 344 207 217 208 177 174 173 173 176 177 181 191 199 192 171 167 194 212 208 205 206 197 195 204 205 205 203 195 195 199 196 198 185 162 147 142 186 218 179 180 190 161 117 85 71 69 154 173 198 207 228 226 213 195 177 169 155 135
316 314 312 306 303 309 316 312 309 308 304 292 271 261 287 8 10 3 310 254 237 231 242 245 236 247 256 258 263 298 314 249 219 199 172 174 184 182 173 179 189 188 191 192 172 171 200 218 211 203 205 196 192 198 195 195 202 200 203 199 198 197 156 142 150 146 188 231 172 176 188 149 119 94 88 86 116 120 107 137 186 248 228 191 171 166 160 145
315 314 309 300 298 308 315 309 308 307 297 272 253 249 256 14 358 329 283 276 270 229 224 230 233 237 241 248 242 223 245 247 228 197 170 179 195 190 180 184 194 190 186 190 188 189 200 213 209 197 193 189 186 191 197 199 205 207 205 200 199 187 164 156 163 155 178 265 180 176 181 146 137 133 113 100 102 117 114 104 96 80 168 176 159 144 153 154
314 311 306 305 306 313 314 308 307 300 276 264 262 251 250 306 332 318 271 263 275 235 215 217 220 230 232 231 206 200 222 233 232 203 172 184 196 191 193 190 193 197 190 194 201 206 209 206 195 186 185 190 187 188 196 200 203 208 207 207 196 183 189 180 153 152 158 225 193 176 178 166 165 166 141 125 129 132 129 116 98 89 101 127 126 106 102 126
311 308 309 311 312 318 315 306 302 281 272 279 260 232 231 284 332 319 282 261 257 219 207 208 212 228 221 203 179 189 213 221 227 214 175 190 197 187 195 194 198 202 192 195 203 213 217 194 177 184 190 196 194 189 195 200 200 202 208 215 200 179 190 166 146 161 180 193 192 196 203 174 164 172 151 147 149 131 123 116 98 90 97 96 93 86 76 86
307 305 310 313 316 322 316 304 300 289 288 273 205 170 196 287 329 308 267 263 248 172 157 180 190 194 185 181 175 180 210 217 217 210 184 194 202 195 195 188 201 208 192 191 202 220 208 171 173 189 190 193 197 195 196 199 206 204 197 207 207 183 189 174 166 184 204 186 175 203 226 179 164 173 152 154 154 131 120 106 97 91 90 87 85 86 83 92
307 301 303 309 319 326 315 305 318 298 284 203 164 210 249 299 317 285 238 254 241 159 136 156 172 174 174 176 172 180 210 185 187 198 191 193 198 206 210 188 193 207 186 180 203 212 184 170 183 192 189 192 198 198 193 197 216 206 174 189 202 192 191 187 188 203 208 149 141 196 228 223 182 170 148 160 159 134 124 104 93 89 86 88 90 85 79 78
303 300 299 302 312 313 296 290 294 286 270 182 250 264 286 304 292 229 244 263 204 131 144 142 138 176 186 172 174 189 195 145 169 185 183 191 192 201 215 195 191 192 177 185 199 177 171 181 185 188 193 196 199 198 185 195 218 185 154 184 200 198 200 199 202 214 207 184 180 192 213 229 187 156 147 170 170 143 125 104 88 81 79 82 86 82 79 78
302 300 299 301 306 301 286 277 272 267 267 286 291 294 299 292 246 208 260 270 169 129 90 130 149 182 177 170 185 201 200 174 188 169 167 188 196 203 221 201 194 186 181 201 205 163 172 190 186 188 197 196 200 197 179 195 213 145 144 182 194 198 209 211 215 216 200 214 216 186 190 217 187 153 166 184 179 156 124 102 83 77 75 75 79 77 75 76
301 295 293 298 302 298 286 270 261 261 263 276 298 304 291 249 212 219 241 241 153 113 36 162 168 168 165 172 191 204 208 200 167 151 163 182 190 202 229 203 199 192 183 206 215 179 163 186 191 195 202 197 195 188 178 196 199 142 159 182 180 191 207 212 224 226 206 214 223 192 187 215 210 167 176 172 156 144 125 109 90 82 81 77 77 75 71 71
299 290 292 293 291 290 288 278 259 232 222 292 305 295 251 201 220 241 212 164 279 3 61 173 161 155 175 186 189 196 206 195 155 161 168 173 182 192 197 190 198 194 182 200 213 189 166 182 193 197 208 204 189 178 180 194 191 176 188 187 178 183 193 202 211 223 218 214 218 196 186 218 228 176 160 131 111 110 114 113 104 96 90 83 79 77 75 73
293 291 296 291 280 272 265 260 229 190 246 311 306 269 206 199 226 237 209 176 239 258 33 34 159 171 189 200 196 188 196 189 168 172 170 172 181 189 192 188 186 189 188 191 196 188 185 191 186 186 203 206 192 182 181 189 193 201 200 188 185 180 182 200 200 206 216 212 204 182 178 212 220 126 130 127 115 103 97 103 109 105 98 92 85 81 78 72
292 296 297 287 272 261 252 249 245 249 279 304 292 230 207 226 221 224 236 229 173 96 348 327 311 251 203 204 198 187 194 187 174 178 175 177 181 184 195 194 188 196 195 186 189 187 188 190 187 188 192 200 204 193 181 186 195 203 201 191 194 185 181 197 195 194 206 198 159 152 173 196 159 114 128 126 110 103 105 105 109 106 100 95 89 84 78 69
295 295 291 281 267 257 250 245 240 245 265 280 259 208 210 230 228 230 240 242 164 126 293 313 310 279 216 206 192 180 193 188 176 184 181 179 184 184 192 192 191 200 195 185 191 188 190 190 187 192 187 189 206 208 187 183 192 202 205 202 205 199 190 197 197 195 197 183 141 142 179 201 170 133 126 123 115 113 117 116 112 108 105 99 91 83 74 66
299 295 288 278 266 256 245 235 227 223 230 246 229 203 209 222 228 233 234 254 303 120 312 311 293 262 204 200 193 183 194 190 177 190 190 185 190 185 187 191 191 197 195 188 188 188 200 197 176 187 188 182 199 212 196 186 191 198 205 209 212 213 200 188 205 209 190 181 161 161 182 153 126 130 126 132 132 126 124 122 115 109 104 95 85 79 70 63
304 297 287 272 260 248 227 217 205 197 206 226 214 207 217 224 227 234 143 18 333 358 332 298 255 236 196 187 192 188 197 198 182 189 193 192 196 189 187 188 189 196 197 189 184 185 201 190 166 175 182 183 195 202 194 195 191 182 202 207 201 227 212 171 118 64 160 182 167 166 170 122 123 152 153 155 146 136 134 126 118 109 99 88 80 79 72 67
304 300 288 270 256 224 197 189 180 183 203 225 215 215 222 227 234 252 40 17 303 343 332 286 212 239 213 188 189 186 188 190 185 187 191 192 197 194 191 186 186 197 201 197 196 193 201 182 163 178 184 182 195 194 190 207 206 185 199 192 158 166 241 200 177 152 180 197 171 176 191 171 167 172 161 168 161 144 140 131 121 111 99 95 91 88 79 76
301 299 285 266 244 196 175 170 170 180 206 218 221 230 232 227 227 234 315 332 303 310 308 282 233 282 252 201 189 182 181 185 184 184 188 188 186 189 192 185 182 195 202 204 202 194 206 190 162 186 189 172 184 196 189 205 223 220 204 181 173 193 199 202 199 178 191 203 171 180 198 196 196 177 165 178 172 150 143 135 125 115 108 108 105 98 87 77
295 290 276 239 195 173 162 164 171 188 214 211 219 229 232 235 234 247 288 287 288 300 305 301 215 272 279 242 199 180 183 191 185 182 191 186 174 190 195 184 182 192 198 203 199 182 208 213 169 185 186 167 176 201 192 186 204 229 211 187 196 214 196 190 193 187 197 198 172 175 194 209 207 170 168 180 171 154 147 137 126 117 113 112 105 97 84 72
288 277 236 116 148 159 156 164 182 201 210 213 223 226 224 235 237 259 287 260 267 297 297 288 194 254 284 270 253 204 193 198 192 192 199 181 162 206 203 188 184 187 186 197 200 178 198 222 182 165 167 171 182 198 201 189 183 199 203 190 194 206 201 193 193 201 210 200 179 175 190 199 175 131 168 172 160 150 142 129 121 115 111 106 98 95 84 74
284 264 162 123 146 154 156 173 197 203 210 218 230 233 232 247 255 264 272 250 256 273 282 280 237 252 281 274 259 213 193 200 196 195 196 178 173 208 199 190 186 180 179 196 198 183 196 209 184 163 172 191 189 186 206 203 189 190 198 192 190 194 196 191 190 201 218 208 181 181 187 161 90 66 161 151 144 143 134 123 119 116 113 107 98 97 91 82
267 245 116 136 157 162 171 195 196 200 219 221 230 241 243 261 267 271 270 248 252 250 254 267 244 254 270 262 256 227 199 193 193 192 188 183 181 146 147 166 184 177 181 197 187 164 219 210 184 174 179 182 163 145 318 260 197 197 206 198 190 194 201 199 189 186 194 194 175 195 194 130 78 67 130 126 134 137 129 125 123 118 112 109 104 98 91 84
245 257 85 139 163 177 207 213 191 204 222 222 245 254 243 251 260 269 263 247 259 257 232 251 245 249 254 245 249 232 199 173 179 186 177 174 156 66 83 133 181 184 188 199 184 152 218 209 184 175 173 151 115 118 121 246 200 207 210 206 202 199 204 216 203 181 180 179 180 200 193 132 105 112 115 120 128 128 128 130 126 121 116 113 108 98 90 88
265 294 91 148 175 214 244 209 194 208 213 217 241 239 233 251 261 261 256 247 252 266 262 267 255 251 253 245 246 229 196 167 142 160 148 154 121 52 56 172 190 194 190 194 182 168 192 202 184 178 175 167 159 169 178 186 201 211 199 197 215 206 199 215 207 190 193 190 194 208 185 129 119 118 119 123 124 122 125 126 123 124 124 119 110 98 92 90
272 260 115 159 194 238 256 250 258 229 212 214 230 234 231 237 246 247 253 257 256 250 255 263 262 267 270 251 234 219 194 167 139 132 111 108 102 58 74 174 196 202 182 163 172 172 189 209 197 194 188 186 188 184 183 186 188 193 182 181 200 204 200 202 199 203 202 188 200 220 166 123 130 135 131 129 125 121 119 118 116 119 120 118 112 103 97 92
275 220 135 157 192 235 254 268 276 256 229 216 221 237 229 227 242 235 240 258 256 242 247 260 269 275 263 230 200 183 177 165 153 153 148 135 98 55 96 164 192 184 124 100 138 160 151 54 22 150 180 188 179 135 359 226 180 171 167 170 177 195 208 211 208 209 191 177 199 196 137 138 152 153 146 141 134 126 122 120 120 120 119 115 111 106 99 92
286 251 177 161 183 220 231 234 236 245 250 220 213 231 214 215 238 221 207 232 241 235 244 252 268 272 242 200 176 158 154 155 151 144 140 128 95 78 103 145 162 135 116 124 152 173 161 144 64 56 62 57 61 52 3 337 165 161 153 155 161 170 203 212 211 198 174 182 194 154 141 152 162 160 152 147 140 132 128 127 125 125 122 116 112 106 101 95
249 275 264 236 220 207 211 217 216 227 245 229 222 250 214 203 220 214 193 227 237 227 223 207 236 263 254 203 168 154 139 137 137 128 118 112 120 125 117 123 123 117 157 158 166 208 177 155 128 96 83 70 68 59 49 99 113 119 123 133 143 159 196 201 191 151 175 199 188 156 150 146 150 154 149 141 136 130 126 125 123 123 121 117 114 107 104 100
255 283 277 281 278 236 224 211 203 217 234 234 231 245 228 205 211 214 212 255 251 219 204 188 198 235 250 237 167 158 142 135 137 136 133 138 154 157 132 126 123 141 181 155 130 243 189 126 141 137 104 75 67 68 92 113 113 104 96 102 114 116 135 146 121 87 79 111 137 137 122 90 108 137 132 124 123 120 117 117 119 122 120 117 114 109 108 104
280 318 317 289 269 259 265 235 212 216 218 222 230 233 229 218 222 240 251 260 277 244 185 165 170 201 229 188 141 136 127 152 154 149 148 152 160 164 147 146 138 144 169 148 119 282 255 136 160 150 110 78 75 97 113 122 116 103 89 86 105 107 93 93 95 73 71 110 126 126 115 89 73 107 112 114 114 114 115 113 116 120 117 114 111 109 110 108
292 330 338 303 260 243 248 230 220 226 214 209 220 226 217 210 223 283 278 250 279 290 166 126 131 130 89 69 70 59 44 100 128 123 121 130 127 116 126 135 146 158 166 141 128 155 132 131 184 195 151 111 106 123 127 126 116 101 88 76 83 100 92 79 72 36 22 128 135 131 127 133 132 116 110 111 114 115 115 115 115 113 110 110 109 108 112 110
321 339 350 317 272 240 242 228 212 221 221 207 215 225 217 216 239 281 306 242 274 309 344 27 92 100 89 76 56 37 61 79 86 92 95 94 85 77 74 75 97 159 170 148 137 161 142 139 185 209 165 128 139 143 134 144 145 118 88 64 55 88 102 95 83 42 5 26 140 132 111 123 133 131 119 113 113 111 110 115 118 113 109 108 108 111 113 105
Height
822 821 820 819 818 818 817 816 815 815 814 813 812 812 811 810 809 808 808 807 806 805 804 802 801 800 798 796 794 792 790 789 787 786 782 777 778 779 779 780 781 782 784 785 786 786 785 785 785 785 784 784 783 781 783 782 780 784 787 790 788 782 778 773 772 773 772 774 774 772 772 773 772 768 764 763 764 767 768 769 770 772 775 777 778 780 782 784
821 820 819 819 818 817 816 815 815 814 813 812 811 811 809 809 808 807 807 806 805 804 803 802 800 799 798 796 794 792 790 788 787 782 776 774 776 776 776 778 780 781 782 784 784 783 783 783 783 784 782 782 782 781 783 781 781 784 784 787 783 775 773 770 771 772 773 776 775 772 772 772 772 769 765 767 770 769 770 772 771 776 780 780 781 782 783 784
821 820 819 818 817 816 815 814 814 813 812 811 810 809 809 808 807 806 806 805 804 803 802 801 800 798 797 795 793 792 790 788 783 775 771 772 773 773 774 775 777 779 781 782 782 781 781 780 781 782 780 781 780 781 783 781 782 780 781 786 778 770 772 772 774 774 774 775 776 775 772 771 770 767 766 768 770 770 769 771 772 776 781 782 782 782 783 784
820 819 818 817 816 815 814 813 813 812 811 810 809 808 808 807 806 806 805 804 803 802 801 800 799 798 796 794 793 791 791 787 775 768 769 771 771 772 773 773 774 777 779 781 781 781 780 780 780 780 781 781 779 781 783 781 780 778 780 781 772 771 775 773 773 774 774 775 776 776 773 772 768 766 768 767 770 772 766 763 766 770 776 780 782 782 783 784
819 818 817 816 815 814 814 813 811 811 810 809 808 807 807 806 805 805 804 803 803 801 801 800 798 797 795 794 792 791 792 782 768 766 769 769 770 771 772 772 773 775 778 780 780 780 780 779 779 780 781 780 779 782 781 777 776 779 779 775 770 773 777 773 772 775 775 776 777 776 775 773 769 767 767 766 768 768 763 760 761 763 770 776 779 781 782 784
818 817 816 815 814 813 812 811 810 809 809 808 807 806 806 805 804 804 803 802 802 801 800 799 798 796 794 792 791 792 790 775 765 768 768 768 770 770 771 771 772 774 777 778 778 779 779 778 779 781 780 778 779 780 777 773 775 780 776 772 772 773 775 773 773 776 776 777 778 776 774 772 772 770 766 766 766 763 762 761 760 762 768 773 777 780 782 783
817 816 816 814 813 812 811 810 809 808 807 807 806 805 805 804 803 803 802 801 801 800 799 799 797 796 793 792 791 791 786 772 766 770 768 768 769 768 770 769 770 773 775 776 775 776 776 777 778 777 778 777 777 776 773 772 776 779 774 772 773 771 773 773 772 775 775 777 776 773 774 774 775 772 768 768 764 761 762 761 762 765 768 773 776 779 781 782
816 815 814 813 812 811 810 809 808 807 806 805 805 804 803 803 802 801 801 801 800 799 799 798 797 796 794 793 790 786 780 771 767 769 767 768 767 766 768 768 770 772 773 772 771 773 774 776 776 773 776 775 772 773 771 774 778 779 775 772 772 771 772 772 772 774 774 774 773 773 775 774 772 770 770 768 763 762 763 763 764 767 770 774 777 779 781 783
815 814 813 812 811 810 809 807 807 806 805 805 804 803 802 802 801 800 800 799 799 798 797 797 797 795 794 793 790 784 774 767 768 769 767 767 767 767 767 768 770 770 771 770 769 770 771 773 772 770 773 770 769 771 771 777 778 774 772 771 771 772 771 771 772 773 773 772 772 775 776 771 770 771 771 765 763 764 763 764 767 769 773 775 778 780 781 784
814 812 812 810 809 809 807 806 805 804 804 804 803 802 801 800 800 799 799 799 798 797 797 797 796 795 795 792 789 781 769 766 769 768 767 767 767 767 768 768 769 769 768 768 768 768 768 769 767 768 771 769 769 770 771 774 770 767 769 769 770 771 769 770 772 771 771 771 771 774 774 769 769 773 772 764 762 764 764 767 767 769 774 776 778 780 781 784
812 811 810 809 808 808 806 805 804 803 803 802 802 801 800 799 799 798 798 798 797 796 796 796 795 795 794 792 786 775 766 767 769 768 768 767 767 768 768 768 768 768 767 766 766 766 766 766 765 769 773 769 769 770 770 769 766 766 769 770 771 770 769 770 771 770 770 769 767 770 772 770 770 772 767 762 763 764 765 768 768 770 773 775 778 780 781 783
811 810 809 808 807 806 805 804 803 802 801 801 800 799 798 798 797 797 796 796 796 796 795 795 795 794 793 792 782 769 765 768 768 768 768 768 769 768 767 768 768 768 767 766 766 766 767 766 767 771 770 767 769 772 768 765 766 768 769 772 772 770 771 769 768 767 768 769 765 767 775 775 772 769 763 761 763 764 765 767 768 770 772 774 777 779 781 783
810 809 808 807 806 805 804 803 802 801 800 799 799 798 797 796 796 796 795 795 795 794 794 794 794 794 794 786 773 767 767 767 767 767 767 768 769 768 768 768 768 769 768 767 766 767 769 768 768 768 766 766 768 769 765 763 768 770 770 771 769 773 772 764 764 765 767 768 763 769 780 777 768 763 761 762 763 765 767 766 767 769 771 774 776 778 781 783
809 807 806 805 804 804 803 802 801 800 799 798 797 796 795 794 794 794 794 794 793 794 794 793 793 793 792 780 766 765 766 765 765 764 765 767 767 768 768 768 769 769 769 768 767 768 770 769 769 767 766 766 764 765 766 767 770 770 772 772 768 772 768 759 761 765 768 767 762 769 778 770 762 761 761 762 763 765 767 765 765 768 770 773 775 778 781 783
807 806 805 804 803 803 802 801 800 798 797 796 795 794 793 792 792 791 792 792 792 793 792 793 793 791 788 775 763 762 762 763 762 760 763 765 765 766 765 767 769 768 769 769 768 770 770 770 770 769 768 765 764 768 770 770 770 767 775 779 770 766 764 761 761 761 765 765 762 769 774 764 758 761 761 762 763 765 765 764 765 767 769 772 774 776 780 783
806 805 804 803 803 802 801 800 798 797 796 795 793 792 791 790 789 789 789 790 791 792 792 792 790 790 784 769 760 759 759 759 757 758 760 762 763 763 763 766 767 768 769 768 769 770 771 771 769 767 766 767 769 768 768 772 772 767 771 775 770 766 763 765 764 758 759 763 763 768 769 762 759 762 762 763 764 766 766 765 766 767 768 771 774 775 778 782
805 804 803 802 802 801 800 799 797 796 795 793 792 790 789 787 786 785 786 789 790 790 792 789 788 790 778 761 758 756 754 755 755 756 758 759 761 761 762 764 765 767 768 769 770 769 770 770 769 768 766 767 766 764 771 779 776 770 769 767 766 764 761 765 767 759 757 762 765 767 765 761 760 761 763 764 764 767 768 766 767 768 769 771 773 775 778 781
804 803 802 801 800 799 798 797 796 795 793 792 790 788 786 785 783 783 784 787 789 791 792 788 789 786 767 755 755 752 750 753 754 755 756 757 759 760 761 761 763 765 767 769 769 768 770 768 768 770 768 766 762 762 772 774 767 768 769 767 767 764 760 762 765 760 758 762 764 767 766 761 760 761 763 764 764 767 767 767 768 769 770 772 773 775 778 781
803 801 801 800 798 798 797 796 795 793 792 790 788 787 786 785 784 784 785 784 783 782 779 777 777 768 753 749 751 750 751 753 753 753 754 755 757 758 759 759 761 763 766 768 767 766 767 768 770 770 768 765 761 759 762 757 754 759 761 763 767 766 761 757 759 758 757 762 763 765 767 762 762 765 766 767 767 768 769 769 771 770 771 773 775 777 779 781
801 800 800 798 797 797 796 795 794 792 791 789 788 787 784 781 778 778 782 781 773 765 762 763 762 754 747 749 750 750 750 750 751 750 751 753 755 756 757 758 760 762 762 763 765 764 764 770 771 766 762 760 759 756 753 752 752 754 757 759 760 763 761 756 759 759 755 761 762 761 763 762 765 769 769 769 769 770 771 773 773 771 771 772 774 778 780 782
800 800 798 797 796 795 794 793 792 791 790 789 788 785 779 775 772 770 775 773 765 762 760 759 759 754 749 749 750 752 751 750 749 747 750 751 751 754 754 755 760 762 759 757 760 762 764 769 765 759 756 754 756 755 754 757 756 755 757 758 758 758 756 756 760 761 757 760 762 761 764 767 770 772 772 770 771 773 774 775 775 772 771 772 774 778 780 782
799 798 797 797 795 794 793 792 791 790 789 788 787 783 778 776 776 775 775 767 759 759 759 756 757 754 750 749 752 754 754 752 748 745 747 750 749 750 750 753 757 758 754 753 759 766 769 766 757 753 752 752 756 756 758 762 760 758 756 758 761 754 754 762 762 760 759 760 763 764 767 771 772 773 774 774 774 776 776 776 777 775 774 774 775 778 779 782
798 796 796 795 793 793 792 790 789 788 787 786 784 782 779 779 779 778 778 769 756 751 751 752 752 750 748 749 750 753 755 751 747 743 743 748 746 745 747 750 752 751 752 754 758 766 768 760 750 748 750 754 759 760 762 764 762 760 756 759 761 753 758 769 766 763 762 761 762 763 766 771 773 774 775 776 776 777 777 777 777 777 778 777 776 778 779 782
796 795 794 793 792 792 790 789 788 786 785 784 782 781 780 780 780 779 776 767 753 744 741 743 744 743 742 743 746 750 750 747 745 741 740 744 743 742 743 744 748 749 750 752 753 757 758 749 744 748 752 755 761 763 762 765 764 760 755 756 756 753 756 761 762 763 765 765 762 762 771 774 771 773 775 775 776 776 776 777 778 779 779 778 778 779 780 782
795 794 793 791 791 790 789 788 785 784 784 782 780 780 780 780 779 780 775 762 747 739 737 737 739 737 735 740 743 743 744 743 740 737 737 740 740 740 741 739 743 747 748 750 751 753 750 742 743 751 754 754 759 763 761 762 764 762 758 753 751 754 756 757 761 765 772 774 763 762 779 781 770 771 775 774 775 777 777 777 779 780 780 780 781 782 784 785
794 793 791 791 790 789 788 784 782 785 782 779 780 779 780 781 779 780 775 758 740 732 734 736 735 731 731 737 738 739 744 739 732 733 735 737 736 736 739 738 738 742 743 745 749 749 743 741 745 752 754 754 758 760 757 756 761 764 759 752 752 754 756 759 761 765 772 772 761 759 773 780 775 772 773 775 774 776 778 778 779 781 782 783 785 786 788 788
792 791 791 790 788 789 787 782 783 783 778 778 780 779 781 779 779 780 771 755 737 726 729 734 733 729 727 729 731 737 740 729 726 731 731 734 734 733 737 738 738 739 736 744 754 747 741 746 749 749 752 755 757 757 753 752 758 759 751 752 757 756 758 760 761 763 759 760 765 762 761 771 776 773 771 774 774 775 778 780 781 781 783 785 786 789 790 790
791 790 789 788 788 788 787 784 784 781 778 779 779 780 780 778 779 777 767 753 735 721 723 729 730 728 726 726 727 729 724 718 724 729 727 732 733 733 737 735 737 739 734 744 755 744 741 749 750 749 752 754 752 749 747 750 755 751 746 752 755 756 759 757 759 760 753 762 775 765 758 770 774 771 772 773 773 777 781 782 784 784 785 786 788 790 791 792
789 789 788 787 786 786 785 785 783 780 780 779 779 779 777 778 778 769 762 749 728 718 721 724 727 727 725 727 727 723 717 716 720 720 723 730 730 731 734 730 732 738 737 740 744 740 740 743 742 745 750 749 746 742 744 751 752 747 748 753 753 756 759 757 760 759 759 774 777 760 760 769 772 772 773 773 773 776 781 783 786 787 788 790 790 792 792 793
788 787 787 786 785 784 783 782 780 779 779 778 779 777 776 778 770 760 759 744 723 720 722 721 723 723 724 729 728 723 718 716 715 717 723 728 729 730 729 726 727 734 739 740 737 736 737 737 737 740 742 740 740 740 743 748 747 748 753 756 759 761 760 761 761 757 769 785 771 753 754 761 770 771 765 770 773 772 777 783 788 790 791 794 794 794 795 795
786 785 785 784 783 783 781 779 777 777 778 778 777 775 775 771 759 754 749 730 719 724 722 720 720 719 723 727 725 723 720 715 715 720 724 726 730 732 730 730 730 734 743 745 739 736 740 743 740 737 736 735 739 744 746 745 746 751 755 757 766 770 769 772 771 767 782 788 764 748 751 758 769 769 762 771 777 773 776 783 790 794 795 797 797 796 798 798
784 783 783 782 781 781 780 777 776 777 777 777 775 772 769 762 755 750 735 719 726 732 723 722 720 716 720 721 719 721 718 715 714 716 721 725 729 731 730 731 732 738 748 748 743 741 743 742 739 739 737 735 742 750 752 751 750 753 753 758 771 779 783 786 782 779 785 779 757 747 756 765 771 769 767 775 780 778 782 786 792 796 797 799 800 799 800 799
781 780 780 779 779 778 777 776 777 778 776 776 774 766 761 757 750 741 726 719 729 731 724 724 720 714 718 719 717 716 715 713 712 713 715 718 725 728 726 723 724 732 741 741 743 748 748 741 737 741 742 737 739 747 756 757 755 754 753 758 768 775 790 796 784 781 782 772 759 754 761 771 776 776 773 777 784 786 788 793 796 798 799 801 801 801 802 802
779 778 776 775 775 774 774 775 775 776 776 776 770 762 761 759 744 731 724 720 721 724 724 724 720 716 716 715 712 710 713 712 709 710 713 716 723 726 724 721 720 723 729 736 741 745 752 750 741 741 741 738 738 738 744 749 752 752 745 748 757 759 775 785 776 776 776 768 767 769 770 771 775 779 776 779 789 791 792 796 797 800 801 801 802 803 804 805
776 774 773 771 771 770 770 772 773 775 776 773 764 758 758 753 737 727 725 720 718 723 726 722 720 718 715 712 708 705 709 712 709 711 714 716 719 720 720 720 718 719 728 738 738 736 745 745 732 731 732 732 739 734 731 742 752 749 740 745 753 743 749 767 769 764 762 765 773 775 772 770 775 782 778 781 790 792 796 798 797 802 802 801 803 805 807 809
773 771 769 767 767 766 767 769 770 773 773 767 759 753 746 738 728 723 723 723 723 725 727 723 718 718 716 711 709 706 704 707 710 713 715 715 714 713 714 715 714 716 723 732 735 734 741 737 723 728 732 728 733 731 728 738 746 747 746 749 745 732 737 761 773 765 761 772 780 773 772 778 785 788 783 785 792 793 798 800 799 803 803 803 806 807 810 812
770 768 766 764 763 764 765 766 768 771 770 762 754 745 734 727 723 721 722 725 725 724 728 728 720 718 717 713 711 708 705 706 708 712 714 714 712 710 710 711 711 713 715 720 728 729 733 735 726 729 736 730 726 728 730 730 732 744 751 744 738 741 744 752 766 774 773 778 781 774 771 776 781 785 785 787 792 795 799 801 801 803 804 806 809 811 813 813
769 767 764 761 761 761 763 765 767 768 764 758 752 740 730 726 722 721 723 725 725 724 727 730 725 720 717 713 710 705 704 709 708 709 714 714 711 707 707 710 711 711 710 713 724 725 725 736 734 726 730 731 726 731 738 734 729 735 739 732 738 757 760 753 761 776 777 777 781 776 770 768 767 774 783 785 787 794 800 801 801 804 806 809 811 812 814 814
768 766 761 758 759 760 761 764 765 763 758 752 748 738 730 726 722 720 724 725 726 726 727 730 730 726 718 712 709 703 704 708 705 708 714 713 714 711 705 708 712 711 710 711 720 723 722 735 740 727 723 729 731 735 741 742 737 733 732 731 736 745 749 749 752 758 764 772 779 781 780 770 756 759 773 777 778 789 798 801 802 805 808 810 811 813 814 816
767 764 759 756 758 759 760 763 761 757 751 744 738 732 727 725 723 722 723 724 726 726 728 731 733 732 723 713 709 705 704 704 701 706 708 707 718 721 708 706 711 711 712 712 716 721 724 733 740 733 727 732 736 734 731 734 737 739 739 739 740 738 737 741 744 742 749 761 772 783 785 769 753 755 762 765 773 786 796 801 804 807 809 811 811 814 817 818
766 763 757 756 758 758 760 761 755 749 743 737 733 729 726 726 725 724 723 724 725 725 726 729 731 732 726 718 712 706 704 705 703 704 706 706 716 722 711 706 709 710 715 718 717 721 724 728 734 737 736 735 730 723 722 723 725 731 735 734 736 739 738 747 755 745 738 745 756 769 774 767 762 760 755 761 775 786 794 801 807 809 811 812 814 816 818 819
765 760 755 756 758 758 757 752 745 741 738 733 730 728 728 728 727 726 724 724 724 724 726 728 730 731 728 722 715 707 705 707 705 705 708 707 711 716 713 711 709 708 715 719 716 719 721 721 728 734 732 729 725 723 725 724 719 722 726 724 727 732 735 747 757 750 743 745 746 750 760 771 772 762 758 769 780 786 793 799 805 811 812 814 817 818 819 820
762 757 755 757 758 758 755 745 739 739 735 730 729 728 728 727 727 727 726 724 724 725 728 729 729 729 725 719 716 709 704 708 709 707 708 709 711 716 716 715 714 710 712 717 716 720 723 722 728 733 728 726 728 727 727 727 725 727 726 722 723 726 728 732 735 738 746 752 749 750 763 777 777 767 768 779 784 789 795 797 801 809 814 817 819 819 820 820
760 756 756 758 758 758 752 739 733 735 733 730 731 730 727 725 726 728 727 725 725 728 732 731 726 724 719 714 713 707 702 710 716 711 710 711 714 718 717 717 718 712 711 716 716 719 726 724 728 739 744 744 744 740 737 734 732 730 727 726 726 724 726 730 729 734 745 747 745 750 763 776 780 778 779 784 788 794 797 798 801 806 812 817 819 820 821 821
759 756 755 757 758 757 750 738 733 733 730 731 733 730 726 725 726 728 728 725 724 728 732 729 721 719 716 712 712 706 699 707 715 714 714 715 716 719 718 718 718 713 713 716 712 715 727 728 728 737 746 750 752 748 743 736 732 732 732 733 733 729 730 734 735 741 749 747 742 746 763 780 785 785 786 788 792 799 801 802 805 808 812 816 818 821 822 822
759 755 753 755 756 754 749 742 740 736 731 731 733 729 727 728 726 724 725 725 724 726 727 725 719 717 716 712 710 708 703 703 710 714 714 716 719 721 719 719 718 716 716 718 715 717 729 735 736 737 739 742 745 746 742 734 732 737 740 738 737 736 734 733 738 742 744 747 746 744 758 781 787 786 791 793 794 801 805 806 808 811 814 816 818 822 823 824
760 753 746 747 751 750 746 741 739 737 733 731 730 726 725 728 727 723 722 724 724 723 724 725 725 722 717 711 709 710 708 705 710 716 717 720 723 723 721 719 719 720 721 720 718 719 727 738 743 746 749 751 752 752 747 739 735 738 740 741 742 743 740 738 741 739 735 744 754 747 750 768 778 783 791 795 796 802 807 808 810 813 816 817 819 823 824 825
758 751 742 740 741 740 740 738 735 735 734 731 728 725 724 728 728 724 723 722 720 721 723 727 729 725 715 708 708 711 710 711 716 718 719 725 727 725 724 722 720 722 722 719 720 720 724 738 746 748 754 757 754 752 747 743 744 744 744 746 747 746 743 741 743 740 736 743 750 748 750 760 768 779 790 794 797 803 807 810 812 814 816 817 819 823 826 827
756 752 745 741 738 734 733 733 733 734 733 730 728 726 726 728 725 720 720 721 720 717 717 723 725 721 712 705 706 710 710 713 720 720 720 726 727 724 726 726 722 722 720 720 724 722 725 741 748 745 752 757 754 752 749 746 748 750 750 750 750 749 746 744 746 746 743 742 741 745 761 773 776 781 790 796 800 804 809 813 814 816 818 819 822 826 828 828
756 754 749 745 740 735 734 733 732 732 729 729 730 725 723 726 724 719 718 720 722 716 711 716 716 712 709 703 703 709 708 706 712 716 717 722 724 722 725 725 722 721 721 724 727 724 729 746 747 740 748 757 756 753 751 748 749 753 755 753 750 751 751 750 753 752 746 744 745 753 771 789 795 794 797 803 806 809 814 817 819 820 821 822 826 829 830 831
757 756 755 753 744 735 734 732 730 730 727 727 728 724 722 725 723 721 719 716 719 717 710 710 709 706 707 706 706 710 708 703 706 711 713 717 719 722 724 722 720 722 724 726 728 724 730 748 752 741 744 755 757 753 751 750 751 756 762 763 757 755 759 762 764 764 756 750 753 758 767 785 800 804 804 808 811 813 818 821 823 825 825 827 830 832 833 834
758 756 756 757 748 737 734 730 728 729 726 723 724 722 722 724 720 721 722 715 714 715 711 708 707 706 710 715 717 716 712 709 711 712 713 715 718 720 721 719 719 722 724 726 728 724 727 745 750 737 739 754 756 751 751 750 748 755 768 775 769 762 764 768 770 774 771 760 758 761 768 783 799 804 807 813 815 818 821 822 824 827 828 830 832 833 834 835